Location: Hamburg
(53.5554°N, 9.9941°E)
Time: 05:57:22
(UTC+01:00)

ISS - Visible Passes

Search period start: 23 February 2018 00:00
Search period end: 05 March 2018 00:00
Orbit: 402 x 407 km, 51.6° (Epoch: 23 February)

Date Brightness Start Highest point End Pass type
(mag) Time Alt. Az. Time Alt. Az. Time Alt. Az.
28 Feb -1.0 06:17:05 10° S 06:19:12 16° SE 06:21:19 10° ESE visible
01 Mar -0.8 05:26:24 10° SSE 05:27:10 11° SE 05:27:56 10° SE visible
02 Mar -1.9 06:07:58 10° SSW 06:10:46 26° SSE 06:13:33 10° E visible
03 Mar -1.5 05:16:44 12° S 05:18:37 18° SSE 05:20:58 10° E visible
04 Mar -1.1 04:26:36 12° SE 04:26:36 12° SE 04:27:59 10° ESE visible
04 Mar -2.7 05:59:17 10° SW 06:02:21 38° SSE 06:05:27 10° E visible
